When you browse on this site, cookies collect data to enhance your experience and personalize the content and advertising you see.
Visit our Privacy Policy to learn more. By continuing to use the site, you agree to this use of cookies and data.
  • In Switzerland
  • List of Countries
  • For 7 days
  • Water Temperature
  • Weather Map
  • Weather Widgets
  • user-avatar
    Login

    Hourly Weather Maidstone

    Today, 26 January, Sunday

    Time Temperature Precipitation Wind Pressure Humidity
    00:00 +5°C° 0 mm 4 mps 758 mmHg 95%
    01:00 +5°C° 0 mm 4 mps 758 mmHg 95%
    02:00 +5°C° 0 mm 4 mps 757 mmHg 96%
    03:00 +5°C° 0 mm 4 mps 757 mmHg 96%
    04:00 +5°C° 0 mm 4 mps 757 mmHg 95%
    05:00 +6°C° 0 mm 4 mps 757 mmHg 94%
    06:00 +6°C° 0 mm 4 mps 757 mmHg 93%
    07:00 +6°C° 0 mm 5 mps 757 mmHg 92%
    08:00 +7°C° 0 mm 5 mps 757 mmHg 91%
    09:00 +7°C° 0 mm 5 mps 757 mmHg 90%
    10:00 +7°C° 0 mm 6 mps 756 mmHg 87%
    11:00 +8°C° 0 mm 6 mps 756 mmHg 84%
    12:00 +8°C° 0 mm 5 mps 756 mmHg 83%
    13:00 +8°C° 0 mm 6 mps 755 mmHg 83%
    14:00 +8°C° 0 mm 7 mps 755 mmHg 84%
    15:00 +8°C° 0 mm 7 mps 754 mmHg 85%
    16:00 +7°C° 0.8 mm 8 mps 754 mmHg 87%
    17:00 +7°C° 0.8 mm 8 mps 753 mmHg 90%
    18:00 +7°C° 0.8 mm 9 mps 753 mmHg 92%
    19:00 +7°C° 1.1 mm 8 mps 753 mmHg 92%
    20:00 +8°C° 1.1 mm 7 mps 753 mmHg 92%
    21:00 +8°C° 1.1 mm 6 mps 752 mmHg 91%
    22:00 +7°C° 0.2 mm 5 mps 752 mmHg 92%
    23:00 +7°C° 0.2 mm 4 mps 752 mmHg 93%

    Tomorrow, 27 January, Monday

    Time Temperature Precipitation Wind Pressure Humidity
    00:00 +7°C° 0.2 mm 3 mps 752 mmHg 94%
    01:00 +6°C° 0 mm 4 mps 752 mmHg 94%
    02:00 +6°C° 0 mm 5 mps 751 mmHg 93%
    03:00 +5°C° 0 mm 6 mps 751 mmHg 93%
    04:00 +5°C° 0 mm 6 mps 751 mmHg 91%
    05:00 +6°C° 0 mm 5 mps 751 mmHg 90%
    06:00 +6°C° 0 mm 5 mps 750 mmHg 89%
    07:00 +6°C° 0.1 mm 5 mps 750 mmHg 89%
    08:00 +6°C° 0.1 mm 5 mps 750 mmHg 89%
    09:00 +6°C° 0.1 mm 5 mps 750 mmHg 88%
    10:00 +6°C° 0.9 mm 5 mps 749 mmHg 88%
    11:00 +6°C° 0.9 mm 5 mps 749 mmHg 87%
    12:00 +6°C° 0.9 mm 4 mps 749 mmHg 87%
    13:00 +6°C° 0.2 mm 4 mps 748 mmHg 86%
    14:00 +6°C° 0.2 mm 4 mps 747 mmHg 85%
    15:00 +7°C° 0.2 mm 3 mps 747 mmHg 83%
    16:00 +7°C° 0.3 mm 3 mps 746 mmHg 85%
    17:00 +5°C° 0.3 mm 4 mps 746 mmHg 87%
    18:00 +5°C° 0.3 mm 4 mps 745 mmHg 89%
    19:00 +5°C° 0.3 mm 4 mps 745 mmHg 89%
    20:00 +5°C° 0.3 mm 5 mps 744 mmHg 89%
    21:00 +5°C° 0.3 mm 5 mps 744 mmHg 88%
    22:00 +4°C° 0.6 mm 6 mps 743 mmHg 89%
    23:00 +4°C° 0.6 mm 6 mps 742 mmHg 89%

    Day after tomorrow, 28 January, Tuesday

    Time Temperature Precipitation Wind Pressure Humidity
    00:00 +3°C° 0.6 mm 7 mps 741 mmHg 89%
    01:00 +3°C° 0.1 mm 6 mps 741 mmHg 87%
    02:00 +2°C° 0.1 mm 6 mps 741 mmHg 86%
    03:00 +2°C° 0.1 mm 5 mps 741 mmHg 85%
    04:00 +1°C° 0 mm 6 mps 741 mmHg 82%
    05:00 0°C° 0 mm 7 mps 742 mmHg 79%
    06:00 -1°C° 0 mm 8 mps 742 mmHg 76%
    07:00 -1°C° 0 mm 8 mps 743 mmHg 75%
    08:00 -1°C° 0 mm 8 mps 744 mmHg 73%
    09:00 -1°C° 0 mm 8 mps 745 mmHg 72%
    10:00 +1°C° 0 mm 8 mps 745 mmHg 70%
    11:00 +2°C° 0 mm 9 mps 746 mmHg 67%
    12:00 +3°C° 0 mm 9 mps 746 mmHg 65%
    13:00 +3°C° 0.1 mm 9 mps 746 mmHg 70%
    14:00 +2°C° 0.1 mm 9 mps 746 mmHg 75%
    15:00 +2°C° 0.1 mm 8 mps 746 mmHg 79%
    16:00 +1°C° 0 mm 8 mps 746 mmHg 77%
    17:00 +1°C° 0 mm 8 mps 746 mmHg 76%
    18:00 +2°C° 0 mm 7 mps 747 mmHg 74%
    19:00 0°C° 0 mm 7 mps 747 mmHg 75%
    20:00 0°C° 0 mm 7 mps 748 mmHg 76%
    21:00 0°C° 0 mm 7 mps 748 mmHg 76%
    22:00 -1°C° 0 mm 7 mps 749 mmHg 76%
    23:00 -1°C° 0 mm 7 mps 749 mmHg 75%

    29 January, Wednesday

    Time Temperature Precipitation Wind Pressure Humidity
    00:00 -1°C° 0 mm 7 mps 750 mmHg 74%
    01:00 -1°C° 0 mm 7 mps 751 mmHg 73%
    02:00 -1°C° 0 mm 7 mps 751 mmHg 73%
    03:00 -1°C° 0 mm 7 mps 752 mmHg 72%
    04:00 -2°C° 0 mm 6 mps 753 mmHg 73%
    05:00 -2°C° 0 mm 6 mps 753 mmHg 74%
    06:00 -2°C° 0 mm 6 mps 754 mmHg 75%
    07:00 -2°C° 0 mm 6 mps 754 mmHg 75%
    08:00 0°C° 0 mm 5 mps 755 mmHg 76%
    09:00 0°C° 0 mm 5 mps 756 mmHg 76%
    10:00 +1°C° 0 mm 5 mps 756 mmHg 73%
    11:00 +2°C° 0 mm 6 mps 757 mmHg 69%
    12:00 +4°C° 0 mm 6 mps 758 mmHg 65%
    13:00 +4°C° 0 mm 6 mps 758 mmHg 66%
    14:00 +5°C° 0 mm 5 mps 758 mmHg 67%
    15:00 +5°C° 0 mm 5 mps 758 mmHg 68%
    16:00 +4°C° 0 mm 4 mps 758 mmHg 73%
    17:00 +3°C° 0 mm 4 mps 759 mmHg 78%
    18:00 +1°C° 0 mm 4 mps 759 mmHg 83%
    19:00 +1°C° 0 mm 4 mps 759 mmHg 84%
    20:00 +1°C° 0 mm 4 mps 759 mmHg 85%
    21:00 +1°C° 0 mm 4 mps 759 mmHg 86%
    22:00 +3°C° 0 mm 4 mps 759 mmHg 87%
    23:00 +3°C° 0 mm 4 mps 759 mmHg 88%

    30 January, Thursday

    Time Temperature Precipitation Wind Pressure Humidity
    00:00 +3°C° 0 mm 4 mps 759 mmHg 88%
    01:00 +3°C° 0 mm 4 mps 759 mmHg 89%
    02:00 +3°C° 0 mm 4 mps 758 mmHg 90%
    03:00 +3°C° 0 mm 4 mps 758 mmHg 91%
    04:00 +3°C° 0 mm 4 mps 757 mmHg 91%
    05:00 +3°C° 0 mm 4 mps 757 mmHg 91%
    06:00 +2°C° 0 mm 5 mps 756 mmHg 91%
    07:00 +3°C° 0 mm 5 mps 755 mmHg 89%
    08:00 +3°C° 0 mm 6 mps 755 mmHg 87%
    09:00 +4°C° 0 mm 6 mps 754 mmHg 85%
    10:00 +4°C° 0.1 mm 7 mps 753 mmHg 87%
    11:00 +4°C° 0.1 mm 8 mps 751 mmHg 88%
    12:00 +5°C° 0.1 mm 8 mps 750 mmHg 89%
    13:00 +6°C° 2 mm 9 mps 749 mmHg 91%
    14:00 +7°C° 2 mm 9 mps 747 mmHg 93%
    15:00 +7°C° 2 mm 10 mps 745 mmHg 95%
    16:00 +8°C° 1.1 mm 9 mps 745 mmHg 94%
    17:00 +10°C° 1.1 mm 8 mps 745 mmHg 93%
    18:00 +10°C° 1.1 mm 8 mps 745 mmHg 92%
    19:00 +10°C° 0 mm 7 mps 746 mmHg 91%
    20:00 +9°C° 0 mm 7 mps 747 mmHg 90%
    21:00 +9°C° 0 mm 6 mps 748 mmHg 89%
    22:00 +9°C° 0 mm 6 mps 749 mmHg 89%
    23:00 +9°C° 0 mm 6 mps 750 mmHg 88%

    31 January, Friday

    Time Temperature Precipitation Wind Pressure Humidity
    00:00 +9°C° 0 mm 6 mps 751 mmHg 88%
    01:00 +8°C° 0 mm 6 mps 751 mmHg 88%
    02:00 +8°C° 0 mm 6 mps 752 mmHg 87%
    03:00 +8°C° 0 mm 7 mps 753 mmHg 87%
    04:00 +7°C° 0 mm 6 mps 753 mmHg 87%
    05:00 +7°C° 0 mm 6 mps 753 mmHg 87%
    06:00 +7°C° 0 mm 5 mps 754 mmHg 87%
    07:00 +7°C° 0 mm 6 mps 754 mmHg 87%
    08:00 +7°C° 0 mm 6 mps 755 mmHg 87%
    09:00 +7°C° 0 mm 6 mps 755 mmHg 87%
    10:00 +8°C° 0 mm 7 mps 755 mmHg 88%
    11:00 +9°C° 0 mm 7 mps 755 mmHg 88%
    12:00 +10°C° 0 mm 8 mps 755 mmHg 88%
    13:00 +10°C° 0 mm 8 mps 755 mmHg 88%
    14:00 +10°C° 0 mm 8 mps 754 mmHg 88%
    15:00 +10°C° 0 mm 9 mps 754 mmHg 88%
    16:00 +10°C° 0.3 mm 8 mps 754 mmHg 90%
    17:00 +10°C° 0.3 mm 8 mps 754 mmHg 91%
    18:00 +10°C° 0.3 mm 8 mps 753 mmHg 93%
    19:00 +10°C° 0.2 mm 8 mps 753 mmHg 93%
    20:00 +11°C° 0.2 mm 8 mps 753 mmHg 93%
    21:00 +11°C° 0.2 mm 8 mps 753 mmHg 92%
    22:00 +10°C° 0 mm 8 mps 753 mmHg 92%
    23:00 +10°C° 0 mm 7 mps 754 mmHg 91%
    Show more